Precipitable_Water
1.54 1.44 1.45 1.44 1.40 1.46 1.49 1.47 1.40 1.40 1.32 1.23 1.22 1.19 1.15 1.12 1.12 1.06 0.99 0.90 0.87 0.85 0.84 0.82 0.89 0.95 1.02 1.00 0.95 0.93 0.91 0.89 0.90 0.86 0.89 0.88 0.87 0.85 0.76 0.74 0.72 0.67 0.77 0.74 0.73 0.68 0.73 0.73 0.70 0.66 0.62 0.60 0.65 0.64 0.60 0.64 0.55 0.52 0.58 0.57 0.62 0.64 0.66 0.70 0.75 0.79 0.84 0.87 0.89 0.89 0.89 0.89 0.88 0.84 0.84 0.84 0.84 0.85 0.86 0.86 0.87 0.87 0.89 0.90 0.91
1.57 1.55 1.45 1.56 1.41 1.39 1.44 1.48 1.42 1.40 1.40 1.26 1.16 1.12 1.09 1.06 1.08 1.04 0.98 0.93 0.87 0.87 0.85 0.80 0.80 0.88 0.95 1.03 1.00 0.97 0.96 0.93 0.90 0.87 0.90 0.92 0.91 0.96 0.84 0.76 0.79 0.71 0.69 0.78 0.73 0.70 0.74 0.73 0.71 0.66 0.63 0.61 0.64 0.64 0.56 0.62 0.53 0.48 0.52 0.58 0.60 0.60 0.64 0.69 0.74 0.81 0.85 0.88 0.89 0.87 0.89 0.89 0.86 0.81 0.81 0.81 0.82 0.84 0.84 0.84 0.85 0.87 0.89 0.89 0.87
1.55 1.49 1.46 1.57 1.37 1.31 1.34 1.42 1.44 1.45 1.42 1.33 1.22 1.12 1.07 1.03 1.01 1.00 0.95 0.92 0.87 0.87 0.86 0.81 0.77 0.78 0.89 1.00 1.04 1.02 0.99 0.99 0.94 0.90 0.90 0.90 0.89 0.93 0.89 0.81 0.78 0.74 0.65 0.75 0.77 0.71 0.75 0.77 0.71 0.67 0.66 0.63 0.60 0.59 0.59 0.61 0.54 0.53 0.54 0.58 0.57 0.59 0.64 0.69 0.76 0.82 0.87 0.90 0.88 0.88 0.89 0.87 0.83 0.79 0.79 0.79 0.80 0.81 0.82 0.83 0.86 0.88 0.86 0.85 0.82
1.47 1.49 1.41 1.42 1.40 1.40 1.35 1.36 1.45 1.46 1.42 1.36 1.30 1.22 1.12 1.07 1.03 1.03 1.00 0.95 0.90 0.87 0.87 0.81 0.76 0.75 0.83 0.91 1.05 1.05 1.02 1.00 0.98 0.95 0.91 0.90 0.90 0.88 0.90 0.86 0.80 0.76 0.69 0.71 0.78 0.76 0.71 0.75 0.72 0.71 0.66 0.64 0.63 0.59 0.61 0.62 0.55 0.52 0.55 0.57 0.57 0.59 0.64 0.70 0.77 0.83 0.87 0.89 0.88 0.89 0.86 0.81 0.80 0.78 0.77 0.77 0.77 0.78 0.80 0.83 0.86 0.83 0.81 0.77 0.75
1.44 1.45 1.53 1.43 1.41 1.45 1.45 1.39 1.42 1.47 1.46 1.42 1.34 1.29 1.20 1.14 1.07 1.04 1.01 0.95 0.90 0.88 0.86 0.81 0.75 0.73 0.77 0.84 0.98 1.03 1.04 1.00 0.98 0.98 0.92 0.90 0.89 0.86 0.84 0.85 0.85 0.81 0.71 0.66 0.75 0.76 0.76 0.75 0.71 0.73 0.71 0.64 0.61 0.57 0.56 0.53 0.52 0.48 0.55 0.56 0.58 0.63 0.66 0.72 0.78 0.84 0.87 0.87 0.87 0.86 0.81 0.79 0.79 0.79 0.81 0.82 0.79 0.78 0.81 0.83 0.81 0.78 0.75 0.74 0.72
1.45 1.43 1.48 1.44 1.39 1.38 1.50 1.49 1.49 1.51 1.51 1.48 1.36 1.33 1.25 1.19 1.09 1.04 0.95 0.88 0.88 0.88 0.84 0.77 0.73 0.73 0.73 0.80 0.88 0.98 1.03 0.97 0.97 0.97 0.94 0.90 0.87 0.86 0.84 0.84 0.82 0.84 0.80 0.68 0.66 0.72 0.80 0.79 0.78 0.75 0.72 0.71 0.68 0.64 0.59 0.60 0.53 0.48 0.56 0.58 0.61 0.66 0.70 0.74 0.80 0.86 0.88 0.87 0.85 0.81 0.77 0.77 0.77 0.79 0.82 0.83 0.80 0.81 0.82 0.80 0.76 0.73 0.72 0.71 0.69
1.51 1.48 1.44 1.46 1.47 1.42 1.44 1.54 1.55 1.60 1.58 1.53 1.43 1.38 1.32 1.19 1.07 1.05 1.03 0.96 0.89 0.89 0.85 0.79 0.72 0.65 0.68 0.73 0.80 0.89 0.97 0.95 0.96 0.95 0.91 0.89 0.88 0.85 0.85 0.84 0.81 0.78 0.78 0.76 0.70 0.66 0.79 0.78 0.80 0.79 0.74 0.73 0.73 0.70 0.66 0.67 0.60 0.51 0.55 0.59 0.64 0.70 0.72 0.77 0.82 0.87 0.88 0.85 0.81 0.77 0.75 0.76 0.77 0.79 0.80 0.82 0.80 0.81 0.80 0.77 0.74 0.72 0.70 0.69 0.68
1.58 1.53 1.45 1.45 1.46 1.50 1.52 1.52 1.56 1.60 1.63 1.59 1.50 1.44 1.39 1.27 1.13 1.12 1.08 1.02 0.94 0.84 0.84 0.81 0.74 0.65 0.64 0.70 0.76 0.83 0.88 0.91 0.91 0.91 0.91 0.87 0.84 0.83 0.84 0.83 0.82 0.81 0.81 0.78 0.77 0.66 0.73 0.77 0.75 0.78 0.77 0.75 0.76 0.71 0.70 0.67 0.63 0.53 0.56 0.60 0.68 0.70 0.75 0.81 0.85 0.88 0.87 0.84 0.81 0.77 0.77 0.78 0.79 0.78 0.80 0.80 0.80 0.79 0.78 0.76 0.73 0.70 0.69 0.69 0.67
1.45 1.55 1.53 1.49 1.49 1.51 1.56 1.56 1.55 1.58 1.64 1.63 1.56 1.54 1.51 1.39 1.30 1.21 1.20 1.15 1.00 0.88 0.83 0.80 0.73 0.68 0.60 0.65 0.72 0.75 0.81 0.86 0.86 0.88 0.87 0.83 0.82 0.81 0.80 0.80 0.79 0.80 0.80 0.79 0.78 0.79 0.75 0.75 0.73 0.75 0.76 0.75 0.73 0.69 0.70 0.72 0.65 0.55 0.56 0.64 0.68 0.71 0.78 0.88 0.86 0.87 0.87 0.84 0.80 0.77 0.77 0.78 0.78 0.79 0.80 0.80 0.80 0.78 0.77 0.75 0.72 0.71 0.70 0.68 0.67
1.22 1.39 1.53 1.57 1.54 1.54 1.57 1.59 1.58 1.59 1.57 1.63 1.58 1.57 1.55 1.50 1.40 1.34 1.31 1.26 1.14 0.96 0.85 0.78 0.71 0.67 0.64 0.66 0.65 0.72 0.77 0.82 0.85 0.88 0.84 0.81 0.80 0.76 0.75 0.77 0.77 0.76 0.76 0.77 0.75 0.77 0.83 0.78 0.72 0.71 0.70 0.73 0.76 0.72 0.67 0.70 0.63 0.52 0.60 0.67 0.71 0.74 0.81 0.91 0.90 0.89 0.85 0.83 0.77 0.75 0.77 0.77 0.77 0.80 0.82 0.81 0.79 0.78 0.76 0.74 0.73 0.72 0.70 0.67 0.65
1.05 1.18 1.33 1.52 1.57 1.49 1.49 1.56 1.58 1.59 1.57 1.58 1.61 1.58 1.54 1.47 1.41 1.41 1.39 1.38 1.30 1.13 0.95 0.81 0.69 0.65 0.68 0.68 0.66 0.69 0.76 0.82 0.84 0.83 0.80 0.78 0.77 0.75 0.74 0.73 0.74 0.75 0.77 0.78 0.77 0.75 0.77 0.82 0.78 0.70 0.72 0.66 0.69 0.74 0.67 0.69 0.61 0.54 0.66 0.70 0.75 0.79 0.87 0.96 0.91 0.87 0.82 0.78 0.75 0.76 0.77 0.76 0.78 0.81 0.82 0.81 0.80 0.78 0.76 0.74 0.74 0.72 0.69 0.66 0.64
0.86 0.96 1.09 1.24 1.43 1.51 1.48 1.51 1.54 1.58 1.59 1.58 1.54 1.55 1.51 1.46 1.41 1.38 1.34 1.38 1.40 1.28 1.10 0.90 0.74 0.67 0.69 0.72 0.71 0.70 0.74 0.78 0.80 0.81 0.81 0.76 0.72 0.72 0.69 0.73 0.71 0.71 0.74 0.74 0.76 0.76 0.76 0.77 0.81 0.73 0.72 0.74 0.72 0.66 0.67 0.66 0.61 0.56 0.65 0.70 0.76 0.86 0.92 0.96 0.90 0.86 0.80 0.78 0.75 0.76 0.77 0.77 0.79 0.81 0.81 0.80 0.79 0.78 0.76 0.75 0.75 0.72 0.68 0.65 0.62
0.76 0.84 0.92 1.02 1.13 1.29 1.42 1.45 1.50 1.52 1.51 1.55 1.57 1.57 1.56 1.52 1.48 1.45 1.37 1.29 1.34 1.40 1.20 1.07 0.83 0.72 0.73 0.69 0.72 0.73 0.75 0.78 0.78 0.80 0.77 0.75 0.73 0.70 0.70 0.67 0.68 0.69 0.70 0.74 0.73 0.74 0.75 0.75 0.75 0.77 0.74 0.80 0.77 0.73 0.70 0.64 0.60 0.53 0.63 0.67 0.77 0.84 0.96 0.94 0.89 0.85 0.79 0.77 0.76 0.75 0.75 0.77 0.81 0.83 0.80 0.79 0.79 0.78 0.76 0.76 0.74 0.71 0.68 0.64 0.62
0.70 0.78 0.83 0.88 0.95 1.07 1.21 1.33 1.43 1.46 1.46 1.52 1.57 1.61 1.53 1.51 1.48 1.40 1.43 1.36 1.28 1.37 1.31 1.15 0.90 0.73 0.66 0.62 0.65 0.70 0.74 0.76 0.75 0.74 0.73 0.72 0.72 0.72 0.70 0.70 0.67 0.68 0.71 0.72 0.71 0.72 0.72 0.73 0.73 0.73 0.75 0.74 0.79 0.78 0.73 0.64 0.55 0.51 0.59 0.67 0.75 0.83 0.95 0.92 0.88 0.83 0.79 0.77 0.77 0.76 0.74 0.78 0.82 0.82 0.81 0.79 0.79 0.77 0.77 0.76 0.74 0.71 0.67 0.64 0.61
0.66 0.71 0.77 0.83 0.87 0.95 1.06 1.19 1.29 1.42 1.47 1.48 1.51 1.52 1.54 1.58 1.56 1.44 1.35 1.37 1.38 1.40 1.34 1.24 1.01 0.89 0.80 0.68 0.60 0.56 0.64 0.68 0.72 0.70 0.68 0.70 0.75 0.73 0.72 0.72 0.70 0.70 0.71 0.70 0.70 0.69 0.70 0.70 0.71 0.71 0.72 0.72 0.73 0.75 0.75 0.70 0.59 0.44 0.56 0.66 0.73 0.80 0.90 0.92 0.87 0.84 0.79 0.78 0.80 0.78 0.77 0.78 0.80 0.80 0.80 0.80 0.79 0.78 0.77 0.77 0.75 0.71 0.67 0.64 0.61
0.64 0.66 0.71 0.76 0.82 0.86 0.98 1.09 1.18 1.26 1.34 1.45 1.52 1.49 1.50 1.55 1.61 1.51 1.40 1.28 1.32 1.32 1.37 1.31 1.19 1.01 0.78 0.68 0.65 0.60 0.50 0.56 0.59 0.64 0.68 0.68 0.72 0.75 0.77 0.74 0.73 0.71 0.70 0.69 0.67 0.68 0.70 0.71 0.68 0.70 0.70 0.71 0.72 0.73 0.74 0.71 0.52 0.41 0.59 0.67 0.73 0.78 0.87 0.91 0.89 0.85 0.80 0.80 0.81 0.81 0.81 0.81 0.82 0.84 0.82 0.81 0.80 0.79 0.79 0.78 0.75 0.71 0.69 0.66 0.61
0.64 0.66 0.68 0.70 0.75 0.80 0.86 0.95 1.06 1.16 1.22 1.20 1.28 1.42 1.44 1.48 1.57 1.53 1.43 1.31 1.26 1.32 1.34 1.34 1.27 1.20 1.01 0.88 0.71 0.60 0.52 0.56 0.67 0.67 0.74 0.69 0.71 0.73 0.80 0.78 0.73 0.71 0.68 0.67 0.70 0.69 0.68 0.68 0.67 0.67 0.68 0.67 0.67 0.70 0.67 0.58 0.49 0.40 0.61 0.67 0.72 0.77 0.83 0.89 0.90 0.87 0.82 0.81 0.83 0.82 0.83 0.85 0.85 0.85 0.84 0.82 0.81 0.80 0.80 0.79 0.75 0.72 0.71 0.68 0.63
0.64 0.65 0.67 0.69 0.70 0.73 0.76 0.82 0.93 1.02 1.09 1.13 1.15 1.18 1.24 1.31 1.32 1.33 1.39 1.41 1.32 1.29 1.30 1.37 1.36 1.25 1.18 1.13 0.98 0.79 0.72 0.68 0.66 0.57 0.78 0.82 0.80 0.79 0.80 0.79 0.75 0.72 0.71 0.67 0.65 0.63 0.65 0.62 0.66 0.65 0.67 0.66 0.65 0.64 0.55 0.53 0.49 0.50 0.64 0.70 0.71 0.76 0.84 0.88 0.91 0.89 0.83 0.84 0.84 0.85 0.85 0.87 0.87 0.88 0.88 0.85 0.83 0.82 0.82 0.79 0.76 0.75 0.73 0.70 0.66
0.64 0.64 0.65 0.67 0.67 0.69 0.70 0.71 0.76 0.86 0.98 1.03 1.01 1.04 1.15 1.28 1.40 1.41 1.45 1.45 1.37 1.28 1.29 1.31 1.37 1.31 1.21 1.20 1.18 1.13 1.05 0.85 0.69 0.67 0.60 0.76 0.80 0.78 0.77 0.78 0.76 0.74 0.72 0.68 0.69 0.65 0.63 0.62 0.62 0.61 0.60 0.60 0.58 0.53 0.52 0.52 0.54 0.64 0.65 0.73 0.76 0.76 0.85 0.84 0.92 0.89 0.87 0.86 0.86 0.87 0.88 0.87 0.89 0.90 0.90 0.88 0.86 0.85 0.82 0.79 0.78 0.76 0.74 0.70 0.66
0.64 0.65 0.65 0.65 0.66 0.66 0.67 0.67 0.66 0.69 0.75 0.84 0.90 0.93 0.99 1.14 1.33 1.44 1.50 1.46 1.41 1.32 1.30 1.36 1.29 1.25 1.28 1.21 1.22 1.23 1.18 1.03 0.97 0.82 0.70 0.63 0.69 0.79 0.80 0.78 0.77 0.76 0.74 0.71 0.70 0.69 0.67 0.62 0.57 0.58 0.55 0.56 0.55 0.52 0.52 0.57 0.64 0.67 0.70 0.74 0.76 0.79 0.85 0.85 0.91 0.91 0.89 0.87 0.87 0.88 0.88 0.87 0.88 0.91 0.91 0.90 0.88 0.85 0.81 0.78 0.77 0.74 0.71 0.67 0.64
0.64 0.64 0.65 0.65 0.65 0.64 0.64 0.64 0.63 0.63 0.66 0.69 0.76 0.83 0.86 0.96 1.14 1.24 1.28 1.39 1.44 1.42 1.39 1.36 1.39 1.34 1.31 1.27 1.26 1.22 1.19 1.14 1.05 0.93 0.77 0.68 0.65 0.68 0.71 0.77 0.76 0.75 0.76 0.75 0.74 0.75 0.74 0.69 0.62 0.62 0.58 0.59 0.57 0.57 0.65 0.72 0.75 0.69 0.74 0.71 0.78 0.82 0.83 0.88 0.92 0.92 0.88 0.87 0.88 0.88 0.87 0.86 0.90 0.91 0.91 0.90 0.89 0.85 0.80 0.77 0.75 0.73 0.68 0.63 0.60
0.60 0.63 0.64 0.65 0.65 0.65 0.64 0.63 0.63 0.64 0.64 0.64 0.68 0.72 0.78 0.85 0.91 0.98 1.09 1.16 1.34 1.43 1.39 1.37 1.36 1.38 1.39 1.34 1.27 1.26 1.24 1.17 1.10 1.01 0.90 0.83 0.68 0.67 0.74 0.66 0.58 0.64 0.72 0.71 0.74 0.77 0.76 0.75 0.67 0.65 0.67 0.67 0.67 0.66 0.75 0.77 0.80 0.79 0.82 0.75 0.79 0.82 0.85 0.89 0.93 0.92 0.87 0.87 0.87 0.87 0.87 0.89 0.90 0.91 0.91 0.89 0.89 0.84 0.80 0.78 0.76 0.73 0.67 0.62 0.59
0.56 0.59 0.62 0.63 0.64 0.66 0.65 0.64 0.65 0.64 0.63 0.64 0.64 0.66 0.71 0.77 0.84 0.88 0.90 0.96 1.02 1.18 1.31 1.37 1.38 1.38 1.38 1.35 1.33 1.31 1.26 1.16 1.12 1.09 0.99 0.86 0.77 0.74 0.75 0.73 0.67 0.62 0.67 0.71 0.72 0.75 0.79 0.78 0.72 0.68 0.75 0.74 0.68 0.74 0.76 0.80 0.85 0.85 0.86 0.80 0.78 0.82 0.88 0.93 0.95 0.93 0.87 0.87 0.88 0.88 0.90 0.90 0.91 0.92 0.91 0.92 0.90 0.87 0.82 0.78 0.75 0.70 0.64 0.60 0.56
0.54 0.55 0.57 0.61 0.63 0.64 0.67 0.66 0.65 0.64 0.62 0.64 0.66 0.68 0.70 0.75 0.81 0.86 0.89 0.92 0.98 1.08 1.15 1.19 1.31 1.36 1.38 1.39 1.36 1.35 1.34 1.29 1.25 1.20 1.10 0.98 0.89 0.82 0.77 0.77 0.75 0.68 0.72 0.72 0.73 0.73 0.75 0.78 0.75 0.70 0.77 0.79 0.74 0.77 0.84 0.86 0.90 0.87 0.84 0.83 0.82 0.85 0.93 0.97 0.96 0.93 0.88 0.89 0.89 0.90 0.90 0.91 0.93 0.93 0.93 0.92 0.89 0.84 0.79 0.76 0.72 0.67 0.60 0.55 0.51
0.47 0.51 0.55 0.59 0.60 0.61 0.62 0.64 0.65 0.66 0.66 0.65 0.64 0.65 0.67 0.69 0.74 0.80 0.85 0.88 0.94 1.01 1.12 1.20 1.27 1.32 1.34 1.37 1.36 1.39 1.37 1.41 1.37 1.27 1.21 1.10 1.01 0.90 0.84 0.81 0.71 0.70 0.71 0.75 0.68 0.70 0.76 0.75 0.83 0.75 0.76 0.82 0.82 0.84 0.90 0.92 0.87 0.83 0.82 0.84 0.86 0.89 0.96 1.00 1.00 0.95 0.91 0.91 0.91 0.90 0.91 0.92 0.93 0.93 0.92 0.91 0.89 0.84 0.77 0.70 0.65 0.58 0.52 0.48 0.45
0.40 0.44 0.51 0.56 0.59 0.61 0.62 0.63 0.65 0.68 0.69 0.67 0.66 0.66 0.66 0.66 0.66 0.71 0.79 0.87 0.91 0.93 0.99 1.10 1.26 1.35 1.34 1.30 1.33 1.37 1.39 1.41 1.42 1.38 1.25 1.14 1.01 0.93 0.89 0.84 0.79 0.72 0.74 0.76 0.76 0.65 0.70 0.77 0.86 0.83 0.80 0.87 0.88 0.90 0.90 0.90 0.83 0.82 0.81 0.82 0.85 0.92 0.98 0.99 0.99 0.93 0.92 0.91 0.90 0.90 0.91 0.93 0.94 0.93 0.91 0.90 0.85 0.77 0.67 0.62 0.60 0.56 0.50 0.45 0.43
0.42 0.43 0.46 0.48 0.53 0.57 0.59 0.60 0.61 0.63 0.66 0.68 0.69 0.67 0.66 0.66 0.65 0.67 0.71 0.80 0.84 0.88 0.90 0.96 1.05 1.19 1.26 1.20 1.15 1.19 1.35 1.44 1.44 1.40 1.37 1.26 1.15 1.02 0.93 0.84 0.80 0.79 0.72 0.77 0.76 0.68 0.66 0.74 0.86 0.87 0.92 0.93 0.88 0.89 0.91 0.88 0.84 0.81 0.83 0.86 0.86 0.92 0.96 0.96 0.94 0.90 0.90 0.88 0.88 0.88 0.89 0.89 0.88 0.88 0.86 0.82 0.79 0.72 0.65 0.62 0.60 0.55 0.48 0.43 0.41
0.45 0.44 0.45 0.45 0.47 0.50 0.55 0.57 0.60 0.62 0.65 0.69 0.71 0.71 0.70 0.67 0.65 0.64 0.64 0.71 0.74 0.80 0.88 1.00 1.06 1.07 1.09 1.18 1.15 1.08 1.18 1.35 1.44 1.43 1.43 1.37 1.30 1.19 1.03 0.91 0.82 0.75 0.75 0.69 0.72 0.72 0.77 0.71 0.74 0.81 0.84 0.85 0.88 0.90 0.90 0.88 0.82 0.82 0.86 0.85 0.87 0.89 0.90 0.92 0.90 0.88 0.87 0.86 0.86 0.86 0.85 0.84 0.85 0.83 0.79 0.77 0.76 0.72 0.67 0.63 0.61 0.56 0.49 0.44 0.42
0.47 0.46 0.45 0.46 0.46 0.48 0.50 0.54 0.58 0.62 0.64 0.67 0.70 0.71 0.72 0.72 0.69 0.66 0.64 0.67 0.69 0.71 0.79 0.81 0.88 0.92 0.96 1.02 1.08 1.13 1.11 1.23 1.38 1.43 1.43 1.43 1.38 1.32 1.19 1.01 0.93 0.81 0.75 0.70 0.70 0.70 0.79 0.81 0.65 0.68 0.76 0.79 0.81 0.84 0.85 0.85 0.80 0.85 0.86 0.84 0.84 0.84 0.85 0.86 0.87 0.86 0.85 0.85 0.84 0.83 0.82 0.81 0.79 0.76 0.76 0.78 0.78 0.74 0.68 0.64 0.62 0.58 0.52 0.47 0.45
0.50 0.47 0.46 0.46 0.46 0.46 0.48 0.51 0.54 0.58 0.60 0.63 0.66 0.72 0.74 0.73 0.73 0.72 0.70 0.69 0.66 0.70 0.75 0.80 0.82 0.88 0.94 0.99 1.02 1.05 1.12 1.08 1.16 1.37 1.42 1.43 1.41 1.38 1.31 1.19 1.06 0.91 0.83 0.74 0.75 0.80 0.76 0.90 0.83 0.69 0.71 0.67 0.70 0.74 0.82 0.78 0.90 0.90 0.83 0.81 0.80 0.80 0.80 0.83 0.84 0.84 0.84 0.82 0.80 0.79 0.78 0.77 0.75 0.75 0.78 0.79 0.79 0.74 0.68 0.64 0.62 0.58 0.53 0.48 0.47
0.49 0.48 0.47 0.46 0.46 0.46 0.46 0.48 0.52 0.55 0.59 0.61 0.64 0.67 0.70 0.72 0.73 0.72 0.73 0.72 0.68 0.66 0.68 0.71 0.79 0.85 0.88 0.90 0.97 0.98 1.05 1.08 1.06 1.18 1.34 1.40 1.41 1.43 1.43 1.32 1.14 1.02 0.93 0.85 0.74 0.87 0.90 0.86 0.85 0.87 0.78 0.72 0.75 0.78 0.80 0.81 0.93 0.87 0.77 0.80 0.81 0.81 0.78 0.78 0.78 0.79 0.80 0.77 0.75 0.74 0.74 0.73 0.74 0.77 0.79 0.80 0.78 0.72 0.67 0.65 0.63 0.59 0.52 0.48 0.47
0.47 0.47 0.48 0.47 0.47 0.46 0.46 0.46 0.49 0.54 0.56 0.60 0.63 0.64 0.66 0.68 0.71 0.72 0.73 0.73 0.71 0.68 0.66 0.69 0.72 0.76 0.76 0.81 0.89 0.92 0.94 0.98 1.02 1.05 1.20 1.35 1.42 1.44 1.45 1.42 1.26 1.14 1.03 0.93 0.84 0.81 1.00 0.96 0.91 0.89 0.82 0.80 0.74 0.76 0.81 0.83 0.87 0.82 0.79 0.78 0.80 0.78 0.74 0.73 0.73 0.76 0.77 0.75 0.74 0.73 0.73 0.74 0.77 0.79 0.80 0.80 0.77 0.72 0.67 0.65 0.63 0.58 0.51 0.47 0.45
0.46 0.46 0.46 0.47 0.48 0.48 0.47 0.47 0.48 0.52 0.55 0.58 0.62 0.63 0.64 0.66 0.70 0.70 0.71 0.72 0.70 0.70 0.69 0.67 0.68 0.73 0.77 0.77 0.81 0.90 0.97 1.00 0.97 1.00 1.17 1.31 1.39 1.45 1.48 1.41 1.31 1.23 1.12 1.03 0.92 0.87 1.02 1.10 1.05 0.95 0.86 0.80 0.75 0.77 0.80 0.83 0.84 0.81 0.78 0.80 0.80 0.77 0.77 0.77 0.76 0.76 0.76 0.76 0.75 0.74 0.75 0.78 0.80 0.80 0.80 0.78 0.74 0.70 0.67 0.65 0.62 0.56 0.50 0.45 0.43
0.46 0.45 0.45 0.47 0.48 0.48 0.48 0.48 0.48 0.51 0.55 0.57 0.60 0.63 0.62 0.64 0.67 0.71 0.72 0.71 0.71 0.71 0.72 0.68 0.66 0.64 0.68 0.72 0.74 0.85 0.99 1.03 1.00 0.94 1.04 1.19 1.31 1.37 1.42 1.42 1.35 1.25 1.22 1.11 1.02 0.91 0.98 1.08 1.10 1.08 0.93 0.82 0.73 0.75 0.77 0.81 0.83 0.78 0.74 0.78 0.80 0.80 0.82 0.82 0.80 0.79 0.78 0.76 0.74 0.75 0.78 0.80 0.81 0.80 0.78 0.75 0.72 0.70 0.67 0.64 0.61 0.55 0.48 0.44 0.41
0.45 0.45 0.46 0.47 0.48 0.49 0.48 0.49 0.49 0.50 0.53 0.56 0.60 0.62 0.62 0.63 0.64 0.67 0.71 0.72 0.71 0.71 0.71 0.71 0.71 0.68 0.64 0.65 0.72 0.73 0.83 0.93 0.99 1.00 0.98 1.08 1.20 1.30 1.37 1.45 1.37 1.29 1.27 1.20 1.08 0.97 1.03 1.04 1.07 0.96 0.93 0.87 0.77 0.74 0.78 0.84 0.83 0.79 0.75 0.75 0.79 0.81 0.83 0.83 0.82 0.83 0.81 0.77 0.75 0.78 0.80 0.81 0.80 0.79 0.76 0.73 0.72 0.69 0.66 0.64 0.60 0.54 0.47 0.43 0.41
0.45 0.46 0.47 0.47 0.48 0.48 0.48 0.48 0.49 0.50 0.52 0.55 0.57 0.60 0.62 0.63 0.63 0.64 0.68 0.71 0.73 0.73 0.73 0.73 0.75 0.73 0.68 0.62 0.64 0.75 0.83 0.91 0.99 1.05 1.06 1.03 1.10 1.22 1.30 1.36 1.35 1.31 1.28 1.25 1.15 1.04 1.09 1.03 1.02 0.97 0.98 0.89 0.80 0.79 0.84 0.83 0.80 0.78 0.77 0.84 0.87 0.83 0.82 0.83 0.84 0.82 0.80 0.77 0.78 0.81 0.82 0.81 0.80 0.78 0.75 0.73 0.72 0.70 0.68 0.65 0.61 0.54 0.46 0.42 0.40
0.48 0.48 0.48 0.49 0.48 0.48 0.47 0.47 0.48 0.49 0.51 0.54 0.56 0.57 0.60 0.63 0.64 0.65 0.66 0.69 0.72 0.74 0.75 0.75 0.76 0.77 0.73 0.67 0.62 0.64 0.75 0.79 0.84 1.07 1.12 1.05 1.10 1.19 1.22 1.26 1.33 1.29 1.25 1.23 1.19 1.10 1.10 1.07 1.05 1.01 0.99 0.94 0.85 0.79 0.80 0.82 0.82 0.79 0.77 0.77 0.79 0.78 0.81 0.86 0.86 0.84 0.80 0.80 0.81 0.82 0.82 0.80 0.79 0.77 0.76 0.75 0.74 0.71 0.68 0.65 0.60 0.52 0.45 0.41 0.40
0.49 0.50 0.49 0.49 0.50 0.49 0.49 0.49 0.49 0.48 0.50 0.52 0.54 0.56 0.58 0.61 0.63 0.64 0.66 0.67 0.69 0.73 0.76 0.76 0.76 0.78 0.77 0.74 0.69 0.66 0.67 0.73 0.80 0.90 1.07 1.08 1.08 1.13 1.17 1.20 1.26 1.30 1.27 1.23 1.21 1.14 1.16 1.11 1.04 1.00 1.02 0.92 0.83 0.81 0.83 0.89 0.89 0.83 0.77 0.77 0.77 0.80 0.86 0.87 0.86 0.82 0.80 0.80 0.81 0.83 0.82 0.81 0.80 0.80 0.77 0.75 0.74 0.71 0.67 0.64 0.58 0.49 0.43 0.40 0.39
0.50 0.50 0.51 0.51 0.52 0.52 0.52 0.52 0.50 0.49 0.49 0.49 0.51 0.54 0.56 0.59 0.61 0.63 0.64 0.66 0.67 0.70 0.74 0.77 0.77 0.78 0.80 0.78 0.74 0.69 0.66 0.68 0.74 0.80 0.97 1.16 1.18 1.06 1.01 1.15 1.22 1.25 1.24 1.22 1.21 1.16 1.14 1.14 1.06 1.05 1.03 0.98 0.89 0.81 0.84 0.88 0.88 0.84 0.79 0.76 0.76 0.84 0.87 0.84 0.80 0.80 0.81 0.81 0.82 0.82 0.82 0.83 0.82 0.81 0.79 0.76 0.73 0.70 0.66 0.62 0.54 0.45 0.41 0.40 0.38
0.50 0.51 0.51 0.52 0.54 0.55 0.55 0.55 0.54 0.53 0.51 0.50 0.49 0.50 0.54 0.56 0.59 0.60 0.63 0.64 0.65 0.67 0.72 0.77 0.78 0.78 0.79 0.80 0.79 0.73 0.66 0.65 0.75 0.81 0.86 0.99 1.13 1.10 1.03 1.11 1.20 1.18 1.21 1.25 1.22 1.19 1.13 1.14 1.07 1.04 1.05 0.98 0.93 0.92 0.90 0.86 0.81 0.79 0.81 0.82 0.81 0.82 0.80 0.79 0.78 0.79 0.81 0.82 0.82 0.83 0.85 0.85 0.84 0.82 0.79 0.76 0.72 0.69 0.65 0.58 0.49 0.43 0.41 0.40 0.38
0.53 0.53 0.54 0.54 0.54 0.54 0.56 0.56 0.56 0.56 0.53 0.52 0.51 0.50 0.49 0.52 0.56 0.58 0.60 0.61 0.62 0.64 0.68 0.74 0.78 0.79 0.80 0.81 0.81 0.78 0.70 0.66 0.71 0.81 0.83 0.94 1.12 1.12 1.11 1.10 1.20 1.23 1.19 1.20 1.25 1.20 1.14 1.11 1.08 1.10 1.03 0.95 0.89 0.88 0.84 0.80 0.78 0.76 0.78 0.80 0.79 0.80 0.80 0.79 0.81 0.84 0.84 0.84 0.84 0.84 0.85 0.85 0.84 0.82 0.79 0.74 0.71 0.67 0.62 0.55 0.48 0.42 0.41 0.39 0.38
0.54 0.55 0.55 0.55 0.55 0.54 0.54 0.55 0.56 0.56 0.55 0.55 0.54 0.55 0.54 0.52 0.53 0.56 0.58 0.59 0.60 0.62 0.64 0.69 0.73 0.77 0.80 0.81 0.82 0.80 0.74 0.67 0.68 0.74 0.78 0.82 0.96 1.17 1.17 1.12 1.16 1.23 1.22 1.17 1.19 1.19 1.16 1.11 1.08 1.05 0.97 0.92 0.88 0.88 0.87 0.87 0.88 0.86 0.80 0.79 0.76 0.76 0.77 0.77 0.79 0.84 0.88 0.87 0.84 0.84 0.85 0.88 0.85 0.82 0.77 0.71 0.73 0.67 0.61 0.53 0.49 0.46 0.42 0.39 0.37
0.55 0.55 0.55 0.54 0.54 0.55 0.54 0.54 0.55 0.56 0.56 0.56 0.56 0.56 0.56 0.57 0.55 0.54 0.55 0.57 0.59 0.60 0.62 0.66 0.70 0.73 0.78 0.81 0.83 0.82 0.77 0.69 0.67 0.68 0.74 0.76 0.82 1.00 1.18 1.18 1.19 1.26 1.22 1.16 1.16 1.18 1.18 1.15 1.13 1.09 0.99 0.92 0.94 0.96 0.94 0.95 0.94 0.90 0.86 0.83 0.80 0.78 0.77 0.77 0.77 0.83 0.87 0.86 0.86 0.85 0.86 0.90 0.85 0.78 0.74 0.69 0.71 0.68 0.58 0.54 0.47 0.46 0.42 0.39 0.37
0.55 0.56 0.55 0.54 0.55 0.55 0.55 0.54 0.54 0.54 0.55 0.57 0.57 0.57 0.57 0.57 0.57 0.56 0.54 0.54 0.57 0.59 0.61 0.65 0.70 0.74 0.76 0.80 0.83 0.84 0.81 0.75 0.67 0.68 0.71 0.76 0.80 0.90 1.09 1.23 1.22 1.25 1.32 1.26 1.20 1.21 1.23 1.20 1.15 1.11 1.02 0.97 0.99 1.02 1.01 0.98 0.95 0.90 0.88 0.87 0.86 0.85 0.84 0.85 0.85 0.84 0.92 0.93 0.88 0.87 0.88 0.91 0.86 0.78 0.71 0.67 0.66 0.62 0.55 0.48 0.46 0.43 0.41 0.39 0.39
0.56 0.54 0.55 0.55 0.55 0.55 0.54 0.52 0.52 0.53 0.54 0.56 0.56 0.57 0.58 0.58 0.58 0.57 0.55 0.53 0.54 0.56 0.60 0.65 0.71 0.74 0.76 0.79 0.80 0.82 0.82 0.79 0.72 0.68 0.72 0.73 0.80 0.88 1.07 1.14 1.21 1.25 1.30 1.38 1.42 1.34 1.28 1.22 1.17 1.10 1.04 1.04 1.02 1.03 1.08 1.09 1.10 1.02 0.97 0.93 0.92 0.92 0.93 0.91 0.89 0.90 0.93 0.97 0.92 0.90 0.88 0.90 0.85 0.76 0.69 0.66 0.61 0.56 0.49 0.46 0.44 0.42 0.40 0.40 0.39
0.54 0.54 0.55 0.55 0.55 0.54 0.53 0.52 0.51 0.52 0.52 0.54 0.56 0.56 0.58 0.58 0.58 0.57 0.55 0.54 0.53 0.54 0.57 0.61 0.69 0.75 0.77 0.79 0.79 0.78 0.80 0.80 0.78 0.74 0.73 0.75 0.75 0.80 0.94 1.09 1.12 1.14 1.23 1.40 1.42 1.40 1.37 1.28 1.19 1.08 1.07 1.10 1.06 1.08 1.13 1.16 1.13 1.08 1.02 0.95 0.95 0.95 0.95 0.94 0.95 0.95 0.99 0.99 0.95 0.92 0.87 0.84 0.83 0.75 0.65 0.60 0.55 0.51 0.49 0.45 0.43 0.43 0.41 0.39 0.37
0.53 0.53 0.54 0.54 0.54 0.54 0.53 0.52 0.51 0.51 0.52 0.54 0.55 0.56 0.57 0.57 0.58 0.58 0.56 0.54 0.53 0.53 0.57 0.60 0.64 0.72 0.78 0.81 0.80 0.79 0.79 0.79 0.80 0.79 0.76 0.75 0.75 0.73 0.82 0.95 1.12 1.19 1.26 1.35 1.40 1.39 1.35 1.34 1.25 1.19 1.16 1.19 1.19 1.18 1.17 1.15 1.12 1.15 1.15 1.07 1.04 1.04 1.04 1.00 1.00 0.98 0.98 1.03 1.00 0.93 0.83 0.80 0.80 0.70 0.58 0.53 0.51 0.48 0.50 0.46 0.46 0.43 0.40 0.37 0.34
0.55 0.55 0.55 0.55 0.53 0.53 0.53 0.53 0.52 0.51 0.53 0.55 0.56 0.56 0.57 0.57 0.58 0.58 0.57 0.54 0.52 0.53 0.56 0.60 0.63 0.69 0.76 0.82 0.81 0.80 0.80 0.81 0.79 0.82 0.82 0.80 0.78 0.73 0.76 0.94 1.04 1.14 1.24 1.31 1.37 1.41 1.37 1.30 1.26 1.22 1.20 1.24 1.28 1.25 1.20 1.17 1.17 1.16 1.14 1.11 1.07 1.03 1.03 0.97 0.93 0.95 0.95 0.97 0.97 0.92 0.83 0.75 0.73 0.60 0.50 0.50 0.47 0.46 0.50 0.49 0.45 0.41 0.37 0.33 0.32
0.53 0.53 0.53 0.52 0.52 0.52 0.52 0.53 0.53 0.52 0.54 0.56 0.57 0.57 0.57 0.57 0.57 0.57 0.57 0.55 0.53 0.52 0.54 0.59 0.64 0.68 0.74 0.80 0.83 0.82 0.82 0.81 0.83 0.84 0.84 0.82 0.78 0.76 0.73 0.82 0.97 1.06 1.11 1.21 1.28 1.36 1.35 1.30 1.25 1.22 1.23 1.25 1.27 1.28 1.26 1.22 1.23 1.21 1.15 1.07 1.01 1.02 0.99 0.93 0.92 0.91 0.91 0.94 0.94 0.91 0.80 0.70 0.64 0.53 0.47 0.46 0.45 0.45 0.51 0.52 0.44 0.36 0.33 0.31 0.30
0.52 0.52 0.52 0.51 0.52 0.53 0.53 0.54 0.55 0.54 0.55 0.58 0.59 0.58 0.57 0.56 0.57 0.58 0.58 0.56 0.54 0.53 0.55 0.59 0.63 0.68 0.72 0.77 0.83 0.86 0.84 0.83 0.85 0.87 0.86 0.81 0.76 0.73 0.70 0.76 0.86 0.95 1.05 1.13 1.19 1.28 1.27 1.27 1.22 1.21 1.22 1.21 1.24 1.27 1.28 1.26 1.23 1.21 1.16 1.05 1.04 1.02 0.98 0.95 0.92 0.93 0.90 0.89 0.88 0.86 0.74 0.62 0.57 0.47 0.44 0.45 0.43 0.49 0.52 0.49 0.44 0.36 0.31 0.31 0.31
0.53 0.53 0.52 0.52 0.52 0.54 0.56 0.56 0.57 0.57 0.57 0.58 0.60 0.59 0.58 0.57 0.58 0.59 0.59 0.59 0.56 0.55 0.56 0.57 0.63 0.68 0.72 0.77 0.81 0.86 0.87 0.88 0.88 0.87 0.86 0.83 0.76 0.70 0.65 0.71 0.79 0.85 0.94 1.02 1.08 1.15 1.16 1.16 1.17 1.19 1.14 1.13 1.17 1.23 1.23 1.23 1.21 1.16 1.14 1.10 1.06 1.00 0.99 0.99 0.96 0.91 0.86 0.84 0.85 0.79 0.63 0.55 0.49 0.42 0.44 0.44 0.45 0.51 0.49 0.42 0.36 0.38 0.37 0.35 0.34
Wind_Speed
18 19 18 18 19 20 20 20 19 18 18 18 17 18 18 18 18 18 19 20 20 21 21 21 21 21 22 21 21 21 20 20 19 18 18 17 17 18 18 18 18 17 17 17 16 16 15 14 13 12 12 11 10 9 8 8 8 7 7 7 7 8 8 8 9 10 10 11 11 10 10 10 10 10 11 12 13 14 15 15 16 17 17 18 18
19 20 20 20 20 21 21 21 21 19 19 18 18 18 18 18 18 18 19 20 20 21 21 22 22 22 22 22 22 22 21 21 20 19 19 18 18 18 18 18 18 18 18 17 17 17 16 15 14 13 13 12 11 10 9 9 9 8 8 8 8 8 8 9 9 10 10 11 10 9 9 9 10 10 11 12 13 14 14 15 16 16 17 17 18
20 20 21 21 20 21 22 22 22 21 20 19 19 18 18 18 19 19 19 20 21 21 22 22 22 23 23 23 23 23 22 22 21 20 20 19 19 18 18 19 19 19 18 18 17 17 17 16 15 15 14 13 12 11 11 10 10 9 9 8 9 9 9 9 9 10 10 10 9 9 9 9 9 10 11 12 13 14 15 15 15 16 16 17 18
22 21 22 22 22 22 23 23 23 23 22 20 20 19 18 18 18 19 20 20 21 21 22 22 23 24 24 24 24 23 23 23 22 22 21 21 20 19 19 19 19 19 19 19 18 18 17 17 16 16 15 14 13 12 12 11 11 10 9 9 9 9 9 9 9 10 10 9 9 9 9 9 9 10 11 12 13 14 15 15 15 16 16 17 18
22 23 23 23 24 24 24 24 24 24 23 22 21 20 20 19 19 19 20 20 20 21 22 23 24 24 25 25 24 24 24 23 23 22 22 22 21 20 20 19 19 20 20 20 20 19 18 18 17 16 16 15 14 13 12 12 11 11 10 10 9 9 9 9 10 10 9 9 9 9 9 9 10 11 12 13 13 14 14 14 15 15 16 16 17
22 23 24 24 24 25 25 25 25 25 25 24 23 22 21 20 20 19 19 20 20 21 22 23 24 25 25 25 25 25 25 24 24 23 23 22 22 21 21 20 20 20 20 20 21 20 19 18 18 17 17 16 15 14 13 13 12 11 10 10 10 10 10 10 11 10 9 9 9 9 9 10 11 12 12 13 13 14 14 14 15 15 16 17 17
22 23 24 24 24 26 27 27 26 26 26 25 24 23 23 22 22 21 20 20 21 21 22 23 24 25 25 26 26 26 25 25 25 24 24 23 23 22 21 21 20 20 20 20 21 21 20 19 19 18 17 17 16 15 14 14 13 12 11 11 10 10 10 11 11 9 9 10 10 9 10 10 11 12 12 13 13 13 13 14 14 15 16 17 17
23 23 24 24 25 26 27 28 27 26 26 26 26 24 24 24 23 23 21 21 21 22 23 23 24 24 25 26 26 27 26 26 26 25 25 24 24 23 23 22 21 21 20 20 20 21 21 21 20 19 18 17 17 16 15 15 14 13 12 12 11 11 11 11 10 10 10 10 10 10 10 10 11 12 12 13 13 13 13 13 14 15 16 16 17
23 24 24 24 25 25 27 29 29 29 28 27 27 26 25 25 25 24 23 22 22 22 23 23 24 25 25 26 27 27 27 27 27 26 26 26 25 24 24 23 22 22 21 21 21 21 21 22 22 21 19 18 18 17 16 15 14 14 13 13 12 12 12 12 11 11 11 10 10 10 10 11 11 12 12 12 12 12 13 13 14 15 16 16 18
24 25 25 25 26 25 26 27 29 30 30 30 29 28 27 26 26 25 25 24 23 23 23 24 24 25 25 26 27 27 28 28 28 28 27 27 26 25 25 24 23 23 22 22 22 21 21 22 22 22 21 20 19 18 17 16 15 14 14 14 13 13 13 12 11 11 11 10 10 10 10 11 11 12 12 12 12 12 13 13 14 15 15 17 18
25 26 26 27 27 27 27 28 28 29 31 31 31 30 29 28 28 27 26 26 25 24 24 24 24 25 26 26 27 28 28 29 29 29 28 28 27 26 26 25 24 24 23 23 23 23 22 22 22 22 22 22 21 20 19 18 17 16 16 15 15 14 14 13 12 11 11 10 10 10 10 11 11 11 12 12 12 12 13 13 14 15 16 17 18
26 27 27 27 27 28 29 30 30 30 30 31 32 32 32 31 30 29 28 28 27 26 26 25 25 25 26 26 27 28 28 29 29 29 29 29 29 28 27 27 26 25 25 24 24 24 24 23 22 22 22 22 22 21 21 20 19 18 18 17 16 15 14 13 13 12 11 11 10 10 10 11 11 11 11 11 12 12 13 13 14 15 16 17 18
26 27 27 28 28 28 29 30 32 32 31 31 32 33 34 33 32 31 30 30 29 28 28 27 26 26 26 27 27 28 28 29 30 30 30 30 30 29 29 28 27 27 26 26 25 25 25 24 24 23 22 22 22 22 22 22 21 20 19 18 17 16 15 14 13 12 12 11 10 10 10 11 11 11 11 11 11 12 13 13 14 15 16 17 19
26 27 28 28 28 29 29 29 31 32 33 32 32 33 34 34 33 33 32 32 30 30 30 29 28 27 26 27 27 28 29 29 30 30 31 31 30 30 30 30 29 28 28 28 27 27 26 26 25 25 24 23 22 22 22 22 22 22 21 20 19 17 16 15 14 13 12 11 11 10 10 11 11 11 11 11 11 12 13 14 15 16 17 17 19
26 27 28 28 29 29 29 29 30 31 33 33 32 32 32 34 35 35 34 33 32 32 32 31 29 28 28 27 27 28 29 30 30 31 31 31 31 31 31 31 31 30 30 29 29 28 28 27 27 26 25 24 24 23 22 22 22 23 22 21 20 18 17 16 15 14 13 12 11 11 11 11 11 11 11 11 11 12 13 14 15 16 17 18 19
25 26 27 28 29 29 30 30 30 30 32 33 34 33 32 33 35 36 36 34 34 33 33 33 32 30 29 28 28 28 28 29 30 31 31 31 31 31 31 31 32 31 31 30 30 29 29 28 28 28 27 26 25 24 23 23 23 23 23 22 21 19 18 17 16 14 13 13 12 12 12 12 12 11 11 11 12 13 13 14 15 16 17 18 19
26 26 27 28 29 30 30 30 31 31 32 33 34 35 34 34 35 36 38 36 35 35 35 35 35 33 31 29 28 28 28 28 29 30 31 32 32 32 31 31 32 31 31 31 31 30 30 30 30 29 29 28 27 26 25 24 24 24 24 23 22 20 19 18 16 15 14 13 13 13 13 13 12 12 11 11 12 13 14 14 15 16 17 18 19
27 27 27 28 29 30 31 32 32 32 33 34 35 35 35 35 35 36 39 38 36 36 36 36 36 35 34 32 30 29 28 28 29 29 30 31 32 32 32 32 32 31 31 31 31 30 30 31 30 30 30 30 29 28 27 26 25 24 23 23 22 21 20 18 17 15 15 14 14 14 14 13 13 12 12 12 13 13 13 14 15 16 17 18 19
27 28 29 29 29 30 31 32 33 34 34 35 36 36 36 36 35 36 38 39 38 38 38 36 36 36 36 35 33 30 29 29 29 28 29 30 32 33 33 33 32 32 31 31 30 30 30 30 30 30 30 30 30 29 27 26 25 24 23 22 22 21 20 19 17 16 16 15 15 15 14 14 13 12 12 12 13 13 13 14 15 16 17 18 19
27 28 29 30 30 31 32 33 34 35 35 35 36 38 38 37 37 37 38 39 39 39 40 38 36 36 36 36 35 33 32 31 30 29 29 29 30 32 33 33 33 32 31 31 30 30 29 29 29 29 29 29 29 28 27 26 25 25 24 23 22 21 21 19 18 17 16 16 16 15 15 14 14 13 12 13 13 13 14 14 15 17 17 18 19
27 28 29 29 30 31 32 33 34 35 36 36 37 37 38 39 39 38 38 39 39 40 41 41 38 37 36 36 36 36 35 34 33 32 31 30 30 30 32 33 33 33 32 31 30 30 29 29 28 28 28 28 28 27 26 25 25 24 24 23 22 22 21 20 19 18 17 17 16 16 15 15 14 13 13 13 13 14 14 15 16 17 18 18 19
28 29 29 30 30 31 32 33 34 35 36 37 38 38 38 39 40 40 39 40 39 39 41 43 42 39 37 37 37 36 36 35 35 34 34 33 32 30 31 32 32 32 32 32 31 30 30 29 28 27 27 27 27 26 26 25 24 24 23 23 23 22 21 20 19 18 18 17 17 16 16 15 14 13 13 13 14 14 15 16 17 17 18 19 20
29 29 30 31 31 31 32 33 33 34 36 37 38 39 39 39 40 40 40 41 41 40 40 43 44 43 40 38 38 37 36 36 35 35 35 34 33 32 31 32 32 32 32 32 32 31 30 29 28 28 27 27 27 26 26 25 25 24 23 24 24 23 22 21 20 19 18 18 17 17 16 15 14 14 13 13 14 15 15 16 17 18 19 20 21
29 29 30 31 32 32 32 33 33 34 35 37 38 39 40 40 40 40 41 41 42 42 41 42 44 46 43 40 39 38 37 36 36 35 35 34 33 33 32 32 32 32 32 32 32 32 31 30 29 29 28 27 27 26 26 25 25 24 24 24 24 23 22 21 20 20 19 18 18 18 17 16 15 14 14 14 15 15 16 17 18 19 20 21 21
29 30 31 31 32 32 33 33 34 34 35 36 37 39 40 41 41 41 41 41 42 43 43 43 43 45 45 42 41 40 38 37 36 36 35 34 34 33 33 32 31 31 31 31 32 32 32 31 30 29 29 28 27 27 27 26 25 25 24 24 24 23 23 22 21 20 20 19 19 18 17 16 15 15 15 15 16 17 17 18 19 20 21 21 22
30 31 32 32 33 33 34 34 35 35 36 36 37 38 40 41 42 42 42 42 42 42 43 43 42 43 44 43 42 41 41 39 38 37 36 36 35 34 32 32 31 31 31 31 32 32 32 32 31 30 30 29 28 27 27 26 26 25 25 24 24 24 23 22 21 21 20 20 19 18 18 17 16 16 16 16 17 18 18 19 19 20 21 22 23
31 32 33 33 34 34 35 35 36 36 36 37 37 38 39 41 42 43 43 43 43 43 43 43 43 44 45 45 44 43 42 41 40 39 38 37 36 35 33 32 32 31 31 32 32 33 33 32 31 31 30 29 29 28 27 26 25 25 25 24 24 24 24 23 22 21 21 20 20 19 18 17 17 17 17 18 18 18 19 19 20 21 21 22 23
32 32 33 34 35 35 35 36 36 37 37 37 37 37 38 39 41 43 44 44 44 44 44 44 44 44 45 46 46 45 44 42 41 41 40 38 37 37 36 34 33 32 31 32 32 33 34 33 32 31 31 30 29 29 28 27 26 26 25 25 25 25 25 24 23 22 22 21 20 20 19 18 18 19 19 18 19 19 19 20 20 21 22 22 23
32 33 34 35 35 36 36 36 37 37 38 38 38 38 38 39 40 41 43 45 45 45 45 45 45 45 45 46 46 46 45 44 43 42 41 40 39 39 38 36 35 33 32 32 32 32 34 34 33 33 32 31 30 29 28 27 27 27 26 26 26 25 25 24 23 23 22 22 21 20 20 20 20 20 19 19 19 20 20 20 21 22 22 23 24
32 33 34 35 35 36 36 37 37 38 38 39 39 39 39 39 40 41 42 43 45 46 46 46 46 46 46 46 46 47 46 46 45 44 42 41 41 40 39 38 37 36 34 33 32 32 33 34 33 33 33 33 32 31 29 29 29 28 27 26 26 26 25 24 24 23 23 22 21 21 21 20 20 20 20 20 20 20 21 21 21 22 23 24 24
33 33 34 34 35 36 36 37 37 38 38 39 39 39 40 40 40 40 41 42 44 46 47 47 47 47 48 48 47 47 47 47 47 46 45 43 43 41 40 39 38 38 37 36 34 33 33 33 34 33 33 33 33 32 30 30 30 29 27 27 26 26 25 25 24 24 23 23 22 21 21 21 21 21 21 21 21 21 21 21 22 23 23 24 24
33 34 34 34 35 36 36 37 37 38 38 39 39 40 40 40 40 41 41 42 43 45 47 47 48 48 49 49 49 48 47 47 47 48 47 45 44 43 40 39 39 38 37 37 36 34 33 34 34 34 33 33 33 33 32 31 30 29 28 28 27 26 26 25 25 25 24 23 22 22 22 21 21 22 22 21 21 21 21 22 23 24 24 24 24
34 34 35 35 35 36 37 37 38 38 39 39 39 40 40 41 41 42 42 42 43 44 46 48 48 49 49 50 50 49 48 48 48 48 48 48 46 44 42 40 39 39 38 37 37 36 34 34 34 34 34 34 34 34 33 32 31 30 29 28 28 27 26 26 26 25 24 23 23 22 22 22 22 22 22 21 21 21 22 23 23 23 24 24 24
34 35 35 35 36 36 37 38 38 39 39 40 40 41 41 42 42 42 42 43 44 44 45 47 48 49 50 50 51 50 49 49 49 48 49 49 48 46 44 42 41 40 39 38 38 37 35 34 34 33 33 34 35 35 34 34 32 31 30 29 29 28 27 27 26 25 25 24 23 23 23 23 22 22 22 21 21 22 22 22 23 23 24 24 24
34 35 35 36 36 37 37 38 39 40 41 41 42 42 42 43 43 43 43 44 44 45 45 46 47 49 50 50 51 51 50 50 50 49 49 49 49 48 46 44 42 41 39 39 39 38 36 35 35 34 34 34 35 35 35 34 33 32 31 30 29 28 28 27 27 26 25 24 24 23 23 23 23 22 22 22 22 22 22 23 23 24 24 25 25
35 35 35 36 37 37 38 39 40 41 42 42 43 43 43 44 44 44 44 44 45 45 46 46 46 48 50 51 51 50 51 51 51 49 49 50 49 49 48 46 44 42 40 39 39 39 37 36 35 34 34 34 34 35 35 34 33 32 31 30 30 29 28 28 27 26 25 25 24 24 24 23 23 23 22 22 22 23 23 23 24 25 25 25 25
35 36 36 37 37 38 39 40 40 41 42 43 44 44 45 45 45 45 45 46 46 46 46 46 47 47 49 50 51 50 51 52 52 50 49 50 50 50 49 47 45 43 41 40 40 39 38 37 35 34 34 34 34 34 34 34 33 31 31 30 30 29 28 28 27 27 25 25 24 24 24 24 24 23 23 23 23 24 24 24 25 25 25 26 26
36 37 37 38 38 39 40 41 41 42 43 44 45 45 46 46 46 46 46 46 47 47 47 47 47 47 48 49 50 51 51 52 53 52 51 50 50 51 50 48 45 43 42 41 40 39 38 37 35 34 34 34 34 34 35 34 33 32 31 30 29 29 29 28 28 27 26 25 25 24 25 25 25 24 23 23 24 24 24 25 25 26 26 26 26
37 38 38 38 39 40 40 41 42 43 44 45 45 46 46 46 46 46 46 46 47 48 48 48 47 48 48 49 50 51 51 52 53 53 53 51 50 51 51 49 47 45 42 41 40 40 39 37 35 35 35 35 34 34 34 34 33 32 31 30 30 29 29 28 28 27 27 26 26 26 26 26 25 24 24 24 24 24 25 25 25 26 27 27 27
38 38 38 39 39 40 41 42 42 43 44 44 45 46 46 46 46 46 46 46 47 47 48 48 48 48 48 49 50 51 52 52 52 52 54 53 50 50 51 50 49 47 44 42 40 40 40 37 36 35 35 34 34 33 33 33 32 32 32 31 30 30 29 29 28 28 27 27 27 26 26 26 25 25 25 25 25 25 25 25 26 27 27 27 27
38 38 39 39 40 40 41 42 43 43 44 44 45 46 46 46 46 46 46 46 47 47 47 48 48 48 48 49 49 51 52 52 52 52 53 54 52 50 50 51 51 48 46 44 42 40 40 38 37 36 35 34 34 34 33 33 33 32 32 31 30 30 29 28 28 28 27 27 26 26 26 26 26 26 26 26 25 25 25 26 27 27 27 27 28
38 39 39 40 40 41 42 43 43 44 44 45 46 46 46 46 46 46 45 45 46 46 47 47 48 48 48 48 49 50 52 52 52 52 53 54 54 52 51 51 52 50 47 46 44 42 40 38 37 37 35 34 34 34 33 33 32 32 32 32 31 30 29 28 27 27 27 27 26 26 26 26 26 25 25 25 25 25 26 26 26 26 27 28 28
39 39 40 40 41 42 42 43 44 44 45 46 46 47 47 47 47 47 46 45 45 45 46 46 47 47 47 48 48 49 51 52 53 52 52 54 55 54 53 53 53 52 49 47 46 44 42 39 38 38 36 35 34 34 33 32 32 32 32 32 31 30 29 29 28 28 28 28 27 26 26 26 26 25 25 25 25 26 26 26 26 27 28 28 28
39 40 40 41 42 42 43 44 44 45 45 46 47 47 47 48 48 48 47 46 45 45 45 45 46 46 46 47 47 47 49 51 52 52 52 53 54 54 54 54 54 54 52 49 47 46 44 42 39 39 38 36 35 34 33 33 32 32 32 32 32 31 30 30 29 28 28 28 27 27 26 26 26 25 25 25 26 26 26 26 27 28 28 28 28
39 40 41 42 42 43 43 44 45 45 46 46 47 47 48 48 48 48 48 48 47 46 45 45 44 45 45 46 46 46 48 50 51 52 52 52 53 54 54 54 55 55 53 51 49 48 46 44 42 41 39 37 36 36 35 34 32 32 33 32 32 31 31 30 29 29 29 28 27 27 26 25 25 25 25 25 26 26 26 26 27 28 28 28 29
40 41 42 43 43 43 44 44 45 46 46 47 47 47 47 48 48 49 48 48 48 47 46 46 45 44 45 45 45 45 47 48 49 51 51 52 52 53 53 53 54 54 53 52 50 49 47 46 44 43 41 39 38 37 36 35 34 33 33 33 32 31 30 30 29 29 29 28 26 25 25 24 24 25 25 25 26 26 26 26 27 28 28 28 28
40 41 42 42 43 44 44 44 45 45 46 46 46 47 47 47 48 48 49 49 48 48 47 47 46 45 44 45 45 44 45 47 48 49 50 51 51 52 53 52 53 53 52 51 50 49 48 46 45 44 42 39 38 37 36 36 35 34 34 33 32 31 31 29 29 29 29 28 26 25 24 24 25 25 25 25 26 26 26 27 27 27 28 28 28
39 40 41 42 43 43 44 44 44 44 44 44 45 46 46 47 47 47 48 48 48 48 47 47 47 46 45 45 44 44 44 46 47 48 49 50 50 51 52 51 51 52 51 49 48 48 48 46 44 43 41 39 38 37 36 36 34 34 34 34 32 31 31 30 29 29 28 28 27 26 24 23 25 26 25 25 26 26 26 27 27 27 27 27 27
38 39 40 41 42 42 43 43 43 42 42 42 43 44 45 46 46 47 47 48 48 48 48 47 46 46 46 46 44 43 43 44 45 47 48 49 49 50 51 51 51 51 50 49 47 46 46 45 43 42 41 39 38 37 36 36 35 34 34 34 33 32 31 30 29 29 28 27 26 26 25 24 25 26 25 25 26 26 26 26 26 26 27 26 26
38 39 39 40 40 41 41 41 41 41 41 40 41 42 43 45 46 46 46 46 47 47 47 47 46 46 47 47 46 44 43 43 44 45 47 48 49 50 51 51 51 51 50 49 47 45 44 43 42 41 40 39 38 37 36 36 36 35 35 35 34 33 31 29 29 28 27 27 27 26 25 25 25 25 24 24 25 25 25 25 25 26 26 26 26
37 37 38 38 38 38 38 38 38 39 39 38 39 41 42 43 45 45 44 45 46 46 46 46 46 45 46 47 47 45 44 42 42 44 46 48 49 50 51 51 51 52 51 50 48 46 45 43 42 41 40 39 38 37 36 36 36 35 34 34 34 33 31 29 28 28 27 27 27 26 25 25 25 25 24 23 24 24 24 25 25 25 25 26 26
Wind_Direction
220 219 217 215 211 207 208 210 210 211 213 213 212 211 211 210 209 210 211 212 213 212 211 212 212 212 212 210 209 208 208 208 208 209 209 210 210 210 210 211 211 212 213 214 215 216 217 220 222 225 229 232 236 241 246 253 263 271 277 286 293 301 309 314 317 321 324 328 331 333 335 339 342 345 348 351 353 354 354 354 353 354 355 355 356
224 222 220 218 215 211 211 212 213 213 214 214 214 213 213 213 212 213 214 215 216 215 214 214 214 214 214 213 212 211 211 211 211 211 212 212 213 213 215 215 215 215 217 218 218 219 220 222 224 227 231 234 237 242 248 253 262 268 273 280 288 296 304 309 312 317 322 326 329 331 334 337 341 343 346 349 351 351 350 350 350 351 353 353 354
228 225 223 221 219 217 215 214 215 215 215 215 216 215 215 215 215 216 217 218 218 218 217 216 217 216 216 216 215 213 213 213 213 213 214 215 215 217 218 219 218 219 220 221 220 220 222 224 226 229 232 236 239 243 248 253 260 265 269 275 284 292 299 304 309 315 321 325 327 329 332 334 338 341 343 346 348 347 347 347 348 349 351 352 353
231 229 227 225 224 222 219 218 217 217 217 216 217 218 218 218 218 219 219 219 220 220 219 219 219 218 217 217 217 216 215 216 216 215 216 217 217 218 220 221 221 222 222 223 222 222 224 226 228 230 233 236 239 243 248 253 258 262 265 272 280 289 295 301 307 314 320 324 326 328 330 333 336 338 340 343 344 344 345 345 346 347 349 351 351
233 232 230 229 227 225 223 222 219 218 219 218 218 219 221 221 221 221 221 221 221 221 221 221 221 220 220 219 218 218 217 217 218 218 218 218 219 220 221 222 223 224 225 225 224 225 226 227 229 231 234 237 239 243 247 251 257 258 262 269 276 285 292 298 306 312 317 320 323 325 327 330 333 334 337 340 342 343 343 343 344 346 348 349 349
235 234 232 231 229 227 226 224 222 220 220 219 219 220 221 223 224 224 223 224 223 223 222 222 222 222 221 221 220 219 219 219 220 220 220 220 221 222 223 224 225 226 227 226 226 226 227 228 229 231 235 237 239 243 246 251 255 256 259 266 273 282 289 297 304 307 312 316 318 320 323 326 328 331 334 337 339 341 342 342 343 345 346 347 347
238 236 234 233 231 229 227 226 224 223 222 221 221 221 222 224 226 225 225 226 226 225 224 224 223 223 222 222 221 221 221 222 222 222 222 222 223 223 225 226 226 227 228 228 228 227 228 228 229 232 235 237 240 243 247 250 253 256 258 263 271 279 288 296 300 302 308 311 312 315 318 322 325 328 331 334 337 340 341 342 343 344 345 345 345
241 239 237 235 234 233 230 228 227 226 225 224 223 223 223 225 227 227 227 228 228 227 226 225 224 224 224 224 223 223 223 223 224 224 224 224 225 225 226 228 228 228 229 229 230 229 229 229 230 232 235 238 240 242 247 250 252 256 257 261 270 277 286 292 294 298 304 306 307 311 315 318 322 325 328 332 336 338 340 340 341 343 344 343 343
243 241 239 237 236 235 233 231 229 228 227 227 226 225 225 226 227 228 229 230 230 229 228 227 226 225 224 225 225 225 225 225 225 226 227 227 227 227 228 229 230 230 230 230 231 230 231 232 232 233 236 238 240 242 247 250 252 254 255 260 268 275 284 287 287 295 301 302 304 307 311 316 319 323 327 331 334 337 338 339 340 342 342 341 342
243 242 241 239 237 236 235 233 232 231 230 230 229 229 228 228 227 228 230 230 231 231 230 229 227 226 225 225 226 226 227 227 227 228 228 229 229 229 230 230 231 231 232 232 232 232 233 234 234 235 237 238 241 243 247 251 252 251 253 260 267 274 281 281 283 291 296 298 302 305 309 313 316 321 325 329 332 335 336 338 339 340 340 340 341
244 243 242 241 239 238 237 235 234 234 232 232 231 230 230 230 230 229 229 230 231 232 233 231 229 227 226 226 226 227 228 228 228 229 230 230 230 231 231 232 232 232 233 233 233 233 234 235 235 237 238 240 242 245 247 250 251 250 253 260 265 273 277 274 280 288 291 295 298 302 306 310 313 318 323 327 331 333 335 336 337 337 338 339 341
246 244 243 243 242 241 240 237 236 235 234 234 233 232 231 232 233 232 230 230 231 232 233 232 231 229 228 227 227 228 229 229 230 230 231 231 232 232 232 232 233 233 233 234 234 235 235 236 237 239 241 242 244 246 248 250 251 251 254 258 264 272 274 270 277 285 287 291 294 298 303 306 310 316 321 325 328 330 332 333 334 335 336 338 340
247 246 245 243 243 243 242 240 238 236 236 236 235 234 233 232 233 234 232 231 231 231 232 232 231 230 229 229 229 229 230 230 231 232 232 233 233 233 233 233 233 234 234 235 236 236 236 237 238 240 242 244 246 249 250 251 251 251 253 257 262 270 271 268 276 281 282 286 289 294 299 302 307 312 318 322 325 327 329 330 331 333 335 336 339
247 246 246 245 243 243 243 242 240 238 237 237 236 235 233 232 233 234 234 233 231 231 231 232 232 230 230 230 230 231 231 231 232 233 233 234 234 234 234 234 234 235 236 236 237 237 238 239 239 241 242 244 247 251 252 252 250 249 252 256 260 267 269 267 273 277 277 280 283 289 294 299 304 310 315 319 321 324 325 327 329 331 333 335 338
248 247 246 246 245 244 244 244 243 241 239 237 236 236 235 234 234 234 234 234 233 232 231 231 232 231 230 231 232 232 232 232 233 233 233 234 234 234 235 235 235 235 236 237 237 238 239 240 240 241 242 244 246 250 252 252 250 248 250 254 258 264 266 265 269 273 272 275 279 285 290 295 301 307 312 316 318 320 321 324 327 329 332 335 337
249 248 247 246 246 246 245 244 244 243 240 238 237 238 237 236 235 234 233 234 235 233 231 230 231 231 231 233 233 233 234 233 233 234 233 233 233 234 236 236 236 236 237 238 238 238 240 241 241 242 242 244 245 248 251 251 250 247 248 252 256 261 263 261 265 267 267 271 277 282 288 293 298 304 309 312 314 316 318 322 325 327 331 334 336
251 250 249 247 247 247 246 245 244 244 242 240 239 239 239 238 238 236 234 234 235 233 232 230 230 231 232 233 233 234 236 235 233 234 234 234 234 234 235 236 237 237 238 238 238 239 240 241 241 242 242 244 245 247 250 251 249 247 249 252 254 258 260 258 261 262 262 268 274 280 286 290 295 300 305 309 311 313 316 320 323 326 330 332 334
252 251 250 249 248 247 247 246 245 245 244 242 241 241 241 241 241 239 236 235 234 234 233 231 230 231 232 234 235 236 237 236 235 236 236 235 236 236 236 236 237 237 238 238 238 239 240 241 241 242 242 244 245 247 249 249 248 247 250 252 252 256 256 254 256 258 258 265 271 278 284 287 291 296 301 305 307 309 314 318 321 324 327 330 332
254 252 252 251 250 249 248 247 246 246 245 244 243 243 243 243 242 241 238 236 235 235 233 231 231 231 232 233 236 237 237 236 236 237 238 237 237 237 237 237 237 237 238 238 239 239 240 240 240 241 243 243 244 246 247 246 246 247 249 250 250 252 252 251 254 255 256 263 269 275 281 285 289 293 298 300 303 307 311 315 318 322 325 327 329
257 255 253 252 251 250 249 248 247 247 246 245 244 244 243 243 243 242 240 238 237 236 233 231 232 232 232 233 234 236 237 237 237 237 239 239 238 238 238 237 237 237 237 237 238 238 239 239 240 241 242 243 243 244 244 243 244 246 248 249 248 248 248 249 252 253 256 261 267 272 277 282 286 290 294 297 300 304 308 313 316 319 322 325 326
260 258 256 254 253 252 251 250 248 248 247 246 245 245 244 244 243 243 243 241 240 237 232 231 232 233 233 233 233 235 237 238 238 237 239 240 240 239 237 236 236 237 237 237 237 237 238 239 239 240 240 241 241 241 241 243 244 245 247 247 246 246 246 247 250 252 255 260 264 269 274 279 283 286 291 294 297 302 306 310 313 316 320 322 323
261 260 258 256 255 254 252 251 250 249 248 246 246 246 245 244 244 244 243 243 242 240 234 233 233 233 234 234 233 234 236 237 237 238 239 239 241 240 237 235 235 236 236 236 236 237 237 238 238 239 239 239 239 239 241 243 245 246 247 245 244 244 244 246 249 252 255 258 263 267 271 276 279 283 288 291 295 300 304 308 312 315 317 320 321
262 261 260 258 256 255 254 252 251 250 249 248 247 246 245 245 245 244 244 243 243 241 238 236 235 233 234 235 234 234 236 237 236 237 238 239 239 240 239 237 236 236 235 235 236 236 236 237 237 238 238 238 238 240 241 243 245 246 245 243 242 242 243 245 249 251 254 258 262 265 269 273 276 280 285 289 294 298 303 307 310 313 315 317 319
263 262 261 260 258 256 255 253 252 251 249 248 247 247 246 245 245 245 244 243 243 241 239 238 237 234 233 235 235 235 236 237 237 236 237 238 238 239 238 237 237 237 235 234 235 235 236 236 236 236 237 237 238 240 241 243 244 244 244 243 241 240 241 244 249 251 253 257 261 264 267 271 274 278 282 286 292 296 300 304 309 312 313 315 317
264 263 262 261 260 258 256 255 253 252 251 250 248 247 247 245 245 245 245 244 243 241 240 240 238 235 233 235 236 235 236 237 237 236 236 237 237 238 238 236 237 237 235 234 234 235 235 236 235 235 236 237 238 239 240 242 243 243 243 242 240 239 240 244 249 252 253 256 260 263 266 269 273 277 280 284 290 294 298 303 307 310 311 313 316
267 265 263 262 261 259 259 257 255 254 252 251 250 248 247 246 245 245 245 244 243 242 241 240 238 235 234 235 236 236 237 238 237 237 237 236 236 236 237 237 236 236 236 235 235 235 234 235 235 234 235 236 237 238 239 242 243 241 240 240 239 239 240 245 249 251 253 256 259 263 265 268 272 275 279 283 288 293 297 301 305 308 310 312 315
267 267 265 263 261 260 259 258 257 256 254 252 251 249 248 247 246 245 244 244 244 243 242 240 238 237 235 236 238 238 238 238 237 236 236 236 237 236 236 237 236 235 236 235 235 234 233 234 235 235 235 235 236 237 238 240 241 238 238 238 238 239 241 245 248 250 252 255 258 262 265 268 271 275 278 282 287 291 295 300 304 307 308 311 314
268 267 266 264 263 261 260 259 258 257 255 253 252 251 249 248 247 246 244 244 244 243 242 240 239 238 238 238 238 238 238 238 238 237 236 236 238 237 236 237 237 236 236 236 235 235 234 233 235 235 235 235 236 236 236 238 238 236 237 239 239 240 242 245 247 249 251 254 257 261 264 267 270 273 276 280 285 289 294 299 303 305 307 309 313
269 267 266 264 263 262 261 260 259 257 256 255 253 252 251 249 248 247 245 244 244 243 242 241 240 239 239 238 238 238 238 238 237 237 236 236 237 237 237 237 238 238 237 236 236 236 235 233 234 235 235 234 234 234 235 236 236 236 238 239 240 243 244 245 247 248 250 253 257 260 263 267 269 271 274 278 283 288 293 297 301 304 306 308 311
271 269 266 264 263 262 261 260 259 258 257 255 254 253 252 251 249 248 246 245 244 243 243 242 241 240 239 238 238 238 237 237 237 236 236 236 235 237 237 237 237 238 238 238 237 236 235 233 233 235 235 234 234 234 235 236 235 237 239 240 241 243 244 245 246 248 250 253 257 260 263 265 267 269 272 276 282 287 291 296 299 302 305 307 309
272 270 267 265 263 261 261 260 260 258 257 256 255 253 252 251 250 249 247 246 244 243 242 242 242 241 240 239 238 238 238 238 237 236 237 236 235 235 237 237 237 237 238 239 239 237 235 233 234 234 234 234 233 234 235 236 236 237 240 240 241 241 243 245 246 247 250 253 256 259 262 264 265 267 271 276 281 286 290 294 298 300 304 307 308
272 270 268 266 264 262 261 260 259 258 257 256 255 253 252 251 251 249 248 246 245 244 243 242 242 242 240 239 238 238 238 238 237 236 236 236 234 233 235 237 237 236 237 238 239 239 236 234 235 234 233 233 233 234 235 236 236 238 240 240 240 240 242 245 246 247 250 252 255 258 261 263 264 267 271 276 281 285 289 293 296 299 303 305 307
272 271 269 267 265 263 262 260 259 258 257 256 255 254 252 252 251 250 249 247 246 245 244 242 242 242 241 240 239 238 237 237 237 236 234 234 233 232 233 237 237 236 235 236 238 238 236 235 235 234 233 233 233 234 235 235 236 239 240 240 239 240 242 244 246 248 249 251 254 257 259 261 264 268 271 275 280 285 289 293 296 299 302 304 306
271 270 269 268 266 264 263 261 260 259 257 256 255 254 253 252 251 250 249 248 246 245 245 243 242 242 241 241 239 237 236 237 237 236 234 233 232 232 233 236 237 236 235 235 236 237 235 234 234 233 233 233 233 233 234 235 236 238 239 239 239 241 243 244 246 248 248 250 253 255 258 261 264 268 271 274 279 285 289 292 296 299 302 304 306
271 270 269 268 266 265 263 262 260 259 258 257 256 255 254 252 251 250 249 248 247 246 245 244 243 242 241 241 240 238 236 236 236 236 234 233 232 232 233 235 236 235 234 234 235 235 234 233 234 234 234 234 232 232 234 234 236 238 239 239 240 242 244 245 246 247 248 249 252 254 257 260 264 267 270 274 280 284 287 291 296 299 301 304 306
272 270 269 268 267 266 264 263 260 259 258 257 256 255 254 253 252 251 250 249 248 246 245 244 243 242 241 240 240 238 236 235 236 235 234 232 232 232 232 233 235 234 234 234 234 235 234 233 233 234 234 234 233 232 233 233 235 237 238 239 240 242 244 245 246 246 247 249 251 254 257 260 263 266 270 274 280 283 285 290 295 298 300 304 305
272 271 270 269 268 266 265 264 262 260 258 257 256 255 254 254 253 252 250 249 248 247 245 244 243 242 242 240 240 239 237 235 234 234 233 232 231 231 231 232 233 233 233 233 233 234 234 232 230 232 233 233 233 232 232 233 234 235 237 238 240 241 242 243 245 246 247 249 251 254 257 260 263 266 270 274 279 283 285 289 294 296 299 303 304
272 271 270 269 268 267 267 265 263 261 259 257 256 255 254 253 253 252 251 249 248 247 246 245 243 243 242 241 239 239 238 236 234 233 233 232 231 230 230 230 231 232 232 232 232 233 233 231 229 230 232 232 232 233 233 233 233 234 235 237 239 241 242 243 245 246 247 249 251 254 257 261 264 266 270 274 279 282 285 289 292 295 298 301 303
273 271 270 269 268 268 268 267 265 263 261 258 256 255 254 253 252 252 251 249 248 247 246 244 243 243 242 241 239 238 237 236 234 233 232 231 230 230 229 228 229 231 231 231 231 231 231 230 230 230 231 231 232 233 233 232 233 234 234 235 238 240 242 243 244 245 246 248 251 254 257 260 264 266 270 274 278 281 284 288 291 294 298 300 301
274 272 271 270 269 268 268 267 266 264 262 259 257 255 254 252 251 251 250 249 248 247 246 244 243 242 241 240 239 238 237 236 235 233 231 231 231 230 229 227 227 229 229 229 230 231 230 230 230 229 230 231 231 232 231 231 233 234 234 236 238 239 240 242 243 245 246 248 251 254 257 260 263 266 270 274 277 280 283 287 291 294 297 298 299
275 273 272 271 269 269 268 267 266 264 262 260 258 256 254 253 251 250 249 249 247 246 245 244 243 242 241 240 239 237 236 235 234 233 231 230 230 229 228 226 225 227 228 228 230 230 229 228 228 228 228 229 230 230 230 232 233 234 234 235 237 238 240 241 243 244 245 248 251 254 256 260 263 267 270 273 276 278 283 287 290 293 296 297 298
275 274 273 271 270 269 268 267 266 264 262 260 258 256 255 253 251 250 248 247 246 245 244 243 242 240 240 239 238 237 235 234 234 233 231 230 230 230 228 226 225 226 227 227 227 228 228 227 227 227 228 228 230 231 231 232 233 233 233 234 235 237 238 240 243 244 245 247 251 254 257 260 264 267 270 272 275 279 283 286 290 293 295 296 297
276 274 273 272 271 270 269 268 266 264 262 260 258 256 254 252 251 249 247 246 245 244 243 242 241 240 239 238 238 236 235 234 233 233 232 230 229 229 228 226 225 226 226 226 226 227 227 226 226 227 228 229 230 232 232 232 232 232 233 234 234 234 235 238 241 243 244 246 250 254 257 260 263 267 270 272 275 279 283 286 289 293 294 295 297
277 276 274 273 272 271 270 268 267 264 262 260 258 256 253 251 250 248 247 245 244 243 242 241 240 239 238 237 237 236 235 233 232 232 231 230 229 228 227 226 225 225 226 226 226 226 225 226 227 228 229 230 231 232 231 231 232 232 233 234 234 234 235 237 240 242 243 245 249 254 258 260 261 265 270 273 276 279 283 286 289 292 293 295 296
278 277 276 274 273 272 271 269 267 265 262 260 258 256 253 251 248 246 246 244 242 242 241 240 239 238 237 237 236 236 234 233 232 231 230 229 228 227 226 226 225 225 226 227 226 226 225 226 228 229 230 231 231 231 230 230 231 233 233 233 233 233 235 237 240 242 242 244 249 254 256 258 260 266 272 274 276 280 283 286 289 291 292 294 296
280 279 278 276 275 274 272 270 268 265 263 260 258 255 253 250 247 245 244 243 241 241 240 239 238 237 237 236 236 235 234 232 231 230 229 229 227 226 225 225 224 224 225 226 226 226 227 228 229 230 231 231 231 230 230 230 232 233 233 233 232 233 235 237 240 242 243 244 248 252 254 258 263 269 273 275 277 280 284 286 288 290 291 293 295
282 281 280 278 277 275 273 272 269 266 263 261 258 255 251 248 245 243 242 242 240 239 239 238 236 236 236 236 235 235 233 232 230 229 228 228 226 225 224 223 223 222 223 224 224 225 227 229 230 230 231 231 230 230 230 231 234 234 233 232 233 233 235 237 239 241 242 243 246 251 256 260 265 270 274 275 277 280 283 286 288 289 291 293 294
283 282 281 279 277 276 275 273 270 267 264 260 257 254 250 246 244 242 241 240 239 238 237 237 235 234 234 234 234 234 233 232 230 228 227 226 225 223 222 221 220 220 221 222 223 224 226 228 229 229 229 228 228 229 230 231 233 234 233 231 231 233 235 237 239 240 241 242 245 251 257 262 266 271 274 276 277 280 284 286 288 289 290 292 294
285 284 282 280 279 277 275 273 270 267 264 260 257 253 248 244 242 241 239 239 238 237 235 235 235 233 232 232 233 233 232 232 229 227 226 224 223 221 220 219 219 219 219 220 220 222 223 225 226 226 225 226 226 227 228 229 231 232 231 229 229 232 235 238 238 238 241 243 246 251 258 263 268 272 274 276 277 280 284 286 288 289 291 292 293
287 286 285 283 281 278 275 272 269 266 263 260 256 251 247 242 240 239 238 237 237 236 234 234 234 233 231 231 231 232 232 231 229 226 224 222 222 220 218 218 218 217 218 218 218 220 221 223 223 223 223 224 225 226 227 228 229 231 231 230 230 231 233 236 237 237 240 244 247 252 259 265 268 271 273 276 278 281 283 285 288 290 291 292 292
290 289 287 285 282 279 275 271 268 265 263 260 256 250 245 241 238 237 237 236 235 235 234 232 232 231 230 230 230 231 231 230 228 225 223 221 221 220 218 217 217 217 217 217 218 219 221 222 222 222 222 223 223 225 227 228 228 230 232 231 230 230 232 233 235 236 241 246 248 251 259 265 267 269 271 275 279 280 282 285 288 290 292 293 293